This demonstration page uses our WeatherBlox Daily Observations layout. Learn more.

Left ArrowRight Arrow

Hourly Observations for November 30, 2022

Temp ( °F °C ) Dew Point ( °F °C ) Humidity (%) Winds ( mph kmh ) Pressure ( in mb ) Visibility ( mi km ) Precip ( " mm )
12:53 am 00:53 Clear 75 23.9 66 18.9 74 74 ENE 3 6 29.96 1014 10 16 0.00 0.00
1:53 am 01:53 Clear 74 23.3 66 18.9 76 76 Calm 29.93 1014 10 16 0.00 0.00
2:53 am 02:53 Clear 74 23.3 66 18.9 76 76 ESE 5 7 29.92 1013 10 16 0.00 0.00
3:54 am 03:54 undefined 73 22.8 65 18.3 76 76 ENE 5 7 29.91 1013 10 16 0.00 0.00
4:53 am 04:53 Clear 73 22.8 64 17.8 73 73 NE 7 11 29.92 1013 10 16 0.00 0.00
5:53 am 05:53 Clear 73 22.8 66 18.9 79 79 ENE 6 9 29.93 1014 10 16 0.00 0.00
6:53 am 06:53 Sunny 73 22.8 66 18.9 79 79 NNE 5 7 29.95 1014 10 16 0.00 0.00
7:53 am 07:53 Sunny 78 25.6 66 18.9 67 67 NE 3 6 29.96 1015 10 16 0.00 0.00
8:53 am 08:53 Sunny 80 26.7 71 21.7 74 74 NW 7 11 29.96 1015 10 16 0.00 0.00
9:53 am 09:53 Sunny 82 27.8 72 22.2 72 72 W 6 9 29.95 1014 10 16 0.00 0.00
10:53 am 10:53 Partly Cloudy 83 28.3 72 22.2 70 70 NW 12 19 29.93 1014 10 16 0.00 0.00
11:53 am 11:53 Partly Cloudy 84 28.9 70 21.1 63 63 WSW 7 11 29.91 1013 10 16 0.00 0.00
12:53 pm 12:53 Partly Cloudy 83 28.3 73 22.8 72 72 S 15 24 29.88 1012 10 16 0.00 0.00
1:01 pm 13:01 Mostly Cloudy 83 28.3 73 22.8 72 72 S 14 22 29.87 1012 10 16 0.00 0.00
1:22 pm 13:22 Partly Cloudy 84 28.9 72 22.2 67 67 SSW 15 24 29.87 1012 10 16 0.00 0.00
1:53 pm 13:53 Partly Cloudy 84 28.9 72 22.2 67 67 S 15 24 29.87 1012 10 16 0.00 0.00
2:53 pm 14:53 Sunny 83 28.3 73 22.8 72 72 S 15 24 29.87 1012 10 16 0.00 0.00
3:53 pm 15:53 Partly Cloudy 83 28.3 72 22.2 70 70 S 16 26 29.88 1012 10 16 0.00 0.00
4:53 pm 16:53 Partly Cloudy 82 27.8 72 22.2 72 72 S 14 22 29.89 1012 10 16 0.00 0.00
5:53 pm 17:53 Mostly Clear 81 27.2 73 22.8 77 77 SSE 15 24 29.91 1013 10 16 0.00 0.00
6:53 pm 18:53 Clear 80 26.7 73 22.8 79 79 SSE 15 24 29.93 1013 10 16 0.00 0.00
7:53 pm 19:53 Mostly Cloudy 80 26.7 73 22.8 79 79 SSE 14 22 29.95 1014 10 16 0.00 0.00
8:53 pm 20:53 Mostly Cloudy 79 26.1 72 22.2 79 79 SE 7 11 29.96 1015 10 16 0.00 0.00
9:53 pm 21:53 Clear 78 25.6 71 21.7 79 79 ESE 6 9 29.96 1015 10 16 0.00 0.00
10:53 pm 22:53 Mostly Cloudy 79 26.1 70 21.1 74 74 ENE 7 11 29.96 1014 10 16 0.00 0.00
11:03 pm 23:03 Mostly Cloudy 79 26.1 70 21.1 74 74 E 6 9 29.96 1014 10 16 0.00 0.00
11:17 pm 23:17 Cloudy 79 26.1 71 21.7 77 77 NE 9 15 29.96 1014 10 16 0.00 0.00
11:53 pm 23:53 Partly Cloudy 78 25.6 72 22.2 82 82 NNW 8 13 29.94 1014 10 16 0.00 0.00

Powered by AerisWeather